TITAN 3C TRANSTAGE DEB, 1682

Orbit data source: Space-Track

TITAN 3C TRANSTAGE DEB, 1682 is space debris in LEO originally from a launch on Fri, 15 Oct 1965 UTC launched from the Air Force Eastern Test Range (AFETR). Debris objects in space refer to the collection of defunct objects orbiting the Earth. Examples of debris include non-operational satellites, rocket bodies, and fragments generated from explosions, collisions, or faulty payload assembly.

Loading next visibility...
Identifier
1682, 1965-082AV
Orbit
LEO
Last TLE update
16 hours ago
Origin
Manufacturer
Unknown
Mission
Spacecraft
Bus & Motor
Unknown
Mass
Unknown
Launch date (UTC)
1965-10-15 (60 years ago)
Launch vehicle
Unknown
Launch site
Air Force Eastern Test Range (AFETR)
Object type
Payload
Rocket body
Debris
Shape & HBR
Unknown
Radar Cross Section
Medium (>0.1 m² and <1 m²)

Expand to show TLE details & history

TLE from 16 hours ago
0 TITAN 3C TRANSTAGE DEB
1 01682U 65082AV  25183.58265681  .00001625  00000-0  23970-3 0  9996
2 01682  32.4121 296.9221 0048704 198.1168 161.7749 14.72765375138879
Epoch: 2025-07-02T13:59Z
TLE epoch observation values (Epoch: 2025-07-02T13:59:01.548Z)
Latitude
-0°
Longitude
166.30396°
Altitude
683.456 km
Speed
7.5 km/s
True Right ascension
19h 47m 41s
True Declination
0° 00' 00"
Sunlit
Object was in full shadow at epoch
Visualization orbit readout
Latitude
-12.73979°
Longitude
3.15856°
Altitude
619.208 km
Speed
7.569 km/s
Apparent Right ascension
07h 25m 58s
Apparent Declination
-28° 08' 55"
Sunlit
Object is in daylight
Visualization observer readout
Local Sidereal Time
17:18:23
Azimuth
284.273° WNW
Elevation
-61.268°
Doppler factor
1
Orbital elements
Apogee altitude
690.083 km
Perigee altitude
621.566 km
Semi-major axis
7,033.961 km
Eccentricity
0.00487
Inclination
32.4121°
RAAN
296.9221°
Arg. of periapsis
198.1168°
True anomaly
Unknown
Mean anomaly
161.7749°
Eccentric anomaly
Unknown
Mean motion
3.67911 °/min
Orbital period
97.85 mins
BSTAR
0.0002397
Loading maneuver chart data...
Loading SW <> Apogee altitude chart data...

TITAN 3C TRANSTAGE DEB Visibility forecast

Observer location: undefined°, undefined°

Span
Click to sort rows by Start time (UTC) header in descending order
Start Az.
Max El. time (UTC)
Max El. Az.
Max El.
End time (UTC)
End Az.
6 mins2025-07-03 11:22:51.663Z200.838° SSW2025-07-03 11:25:51.663Z156.088° SSE19.612°2025-07-03 11:28:51.663Z116.07° SE
6 mins2025-07-03 13:05:51.663Z226.771° WSW2025-07-03 13:08:51.663Z168.294° S28.326°2025-07-03 13:11:51.663Z119.529° SE
6 mins2025-07-03 14:48:51.663Z238.902° WSW2025-07-03 14:51:51.663Z186.099° SSW25.299°2025-07-03 14:54:51.663Z138.646° SSE
|